Havre-Saint-Pierre, Quebec

6:10 AM EDT on March 25, 2017 (GMT -0400)
Havre Saint-Pierre

Weather History for CYGV - March, 2012

Change the Weather History Date:

Sunday, March 4, 2012

  Actual Average Record
Temperature  
Mean Temperature 21 °F -  
Max Temperature 32 °F 27 °F 41 °F (2013)
Min Temperature 10 °F 11 °F -23 °F (1997)
Degree Days  
Heating Degree Days 44    
Moisture  
Dew Point 20 °F    
Average Humidity 82    
Maximum Humidity 100    
Minimum Humidity 63    
Precipitation  
Precipitation 0.00 in - - ()
Sea Level Pressure  
Sea Level Pressure 29.33 in    
Wind  
Wind Speed 9 mph ()    
Max Wind Speed 20 mph    
Max Gust Speed 29 mph    
Visibility 5.6 miles    
Events Snow    
Averages and records for this station are not official NWS values.
T = Trace of Precipitation, MM = Missing Value Source: Averaged Metar Reports

Daily Weather History Graph

Daily Weather History Graph

Search for Another Location

Airport or City:

Trip Planner

Search our weather history database for the weather conditions in past years. The results will help you decide how hot, cold, wet, or windy it might be!

Date:

Astronomy

Mar. 04, 2012 Rise Set
Actual Time 5:50 AM EST 5:02 PM EST
Civil Twilight 5:18 AM EST 5:34 PM EST
Nautical Twilight 4:40 AM EST 6:12 PM EST
Astronomical Twilight 4:02 AM EST 6:50 PM EST
Moon 12:49 PM EST (3/4) 3:29 AM EST (3/4)
Length of Visible Light 12h 16m
Length of Day
11h 11m
Waxing Gibbous, 83% of the Moon is Illuminated
Mar 4
Waxing Gibbous
Mar 8
Full
Mar 14
Last Quarter
Mar 22
New
Mar 30
First Quarter

Hourly Weather History & Observations

Time (EST) Temp. Windchill Dew Point Humidity Pressure Visibility Wind Dir Wind Speed Gust Speed Precip Events Conditions
12:00 AM 28.4 °F 19.1 °F 28.4 °F 100% 29.11 in 1.2 mi East 10.4 mph - N/A Snow Light Snow
12:10 AM 28.4 °F 19.7 °F 28.4 °F 100% 29.11 in 2.0 mi East 9.2 mph - N/A Snow Light Snow
12:28 AM 28.4 °F 19.7 °F 28.4 °F 100% 29.09 in 2.0 mi East 9.2 mph - N/A Snow Light Snow
12:35 AM 28.4 °F 20.4 °F 28.4 °F 100% 29.09 in 1.5 mi East 8.1 mph - N/A Snow Light Snow
12:39 AM 28.4 °F 22.2 °F 28.4 °F 100% 29.09 in 2.0 mi East 5.8 mph - N/A Snow Light Snow
12:45 AM 28.4 °F 20.4 °F 28.4 °F 100% 29.08 in 2.5 mi East 8.1 mph - N/A Snow Light Snow
12:54 AM 28.4 °F 21.2 °F 26.6 °F 93% 29.08 in 2.5 mi ENE 6.9 mph - N/A Snow Light Snow
12:55 AM 28.4 °F 21.2 °F 26.6 °F 93% 29.08 in 2.5 mi ENE 6.9 mph - N/A Snow Light Snow
12:56 AM 28.4 °F 21.2 °F 26.6 °F 93% 29.08 in 2.5 mi ENE 6.9 mph - N/A Snow Light Snow
12:59 AM 28.4 °F 23.3 °F 26.6 °F 93% 29.08 in 2.0 mi East 4.6 mph - N/A Snow Light Snow
1:00 AM 28.4 °F 23.3 °F 26.6 °F 93% 29.08 in 2.0 mi ENE 4.6 mph - N/A Snow Light Snow
1:01 AM 28.4 °F 23.3 °F 26.6 °F 93% 29.08 in 2.0 mi East 4.6 mph - N/A Snow Light Snow
1:02 AM 28.4 °F 22.2 °F 26.6 °F 93% 29.07 in 1.5 mi East 5.8 mph - N/A Snow Light Snow
1:09 AM 28.4 °F 22.2 °F 26.6 °F 93% 29.07 in 2.0 mi East 5.8 mph - N/A Snow Light Snow
1:16 AM 28.4 °F 22.2 °F 26.6 °F 93% 29.07 in 1.5 mi East 5.8 mph - N/A Snow Light Snow
1:27 AM 28.4 °F 23.3 °F 26.6 °F 93% 29.07 in 2.0 mi East 4.6 mph - N/A Snow Light Snow
1:37 AM 28.4 °F 22.2 °F 26.6 °F 93% 29.07 in 2.5 mi ENE 5.8 mph - N/A Snow Light Snow
1:43 AM 28.4 °F 22.2 °F 26.6 °F 93% 29.07 in 5.0 mi East 5.8 mph - N/A Snow Light Snow
1:45 AM 28.4 °F - 26.6 °F 93% 29.07 in 6.0 mi Variable 2.3 mph - N/A Snow Light Snow
1:49 AM 28.4 °F 22.2 °F 26.6 °F 93% 29.07 in 5.0 mi Variable 5.8 mph - N/A Snow Light Snow
1:50 AM 28.4 °F 24.6 °F 26.6 °F 93% 29.07 in 5.0 mi Variable 3.5 mph - N/A Snow Light Snow
1:52 AM 28.4 °F 24.6 °F 26.6 °F 93% 29.07 in 5.0 mi Variable 3.5 mph - N/A Snow Light Snow
1:53 AM 28.4 °F 22.2 °F 26.6 °F 93% 29.07 in 5.0 mi Variable 5.8 mph - N/A Snow Light Snow
1:57 AM 28.4 °F 23.3 °F 26.6 °F 93% 29.06 in 5.0 mi ENE 4.6 mph - N/A Snow Light Snow
2:00 AM 28.4 °F 22.2 °F 26.6 °F 93% 29.07 in 8.0 mi WNW 5.8 mph - N/A Snow Light Snow
2:03 AM 28.4 °F 22.2 °F 26.6 °F 93% 29.06 in 8.0 mi North 5.8 mph - N/A Snow Light Snow
2:55 AM 24.8 °F 19.1 °F 24.8 °F 100% 29.07 in 9.0 mi West 4.6 mph - N/A   Overcast
3:00 AM 24.8 °F 17.9 °F 24.8 °F 100% 29.07 in 9.0 mi West 5.8 mph - N/A Snow Light Snow
3:01 AM 24.8 °F 17.9 °F 24.8 °F 100% 29.07 in 9.0 mi WSW 5.8 mph - N/A Snow Light Snow
3:02 AM 24.8 °F 17.9 °F 24.8 °F 100% 29.07 in 9.0 mi WSW 5.8 mph - N/A Snow Light Snow
3:03 AM 26.6 °F 20.0 °F 24.8 °F 93% 29.07 in 9.0 mi WSW 5.8 mph - N/A Snow Light Snow
4:00 AM 26.6 °F 16.8 °F 26.6 °F 100% 29.10 in 8.0 mi West 10.4 mph - N/A Snow Light Snow
4:05 AM 26.6 °F 16.8 °F 26.6 °F 100% 29.10 in 5.0 mi West 10.4 mph - N/A Snow Light Snow
4:37 AM 26.6 °F 16.8 °F 26.6 °F 100% 29.12 in 2.0 mi West 10.4 mph - N/A Snow Light Snow
4:47 AM 26.6 °F 16.8 °F 26.6 °F 100% 29.12 in 2.5 mi West 10.4 mph - N/A Snow Light Snow
4:48 AM 26.6 °F 17.5 °F 26.6 °F 100% 29.12 in 2.5 mi West 9.2 mph - N/A Snow Light Snow
4:53 AM 26.6 °F 17.5 °F 26.6 °F 100% 29.13 in 5.0 mi West 9.2 mph - N/A Snow Light Snow
5:00 AM 26.6 °F 18.2 °F 24.8 °F 93% 29.13 in 9.0 mi West 8.1 mph - N/A Snow Light Snow
5:03 AM 26.6 °F 18.2 °F 24.8 °F 93% 29.13 in 9.0 mi West 8.1 mph - N/A Snow Light Snow
5:06 AM 26.6 °F 18.2 °F 24.8 °F 93% 29.13 in 9.0 mi West 8.1 mph - N/A   Overcast
5:50 AM 23.0 °F 13.9 °F 21.2 °F 93% 29.16 in 9.0 mi West 8.1 mph - N/A   Mostly Cloudy
6:00 AM 21.2 °F 12.6 °F 21.2 °F 100% 29.17 in 9.0 mi West 6.9 mph - N/A   Mostly Cloudy
7:00 AM 21.2 °F 10.9 °F 21.2 °F 100% 29.22 in 9.0 mi West 9.2 mph - N/A   Partly Cloudy
8:00 AM 24.8 °F 16.1 °F 21.2 °F 86% 29.27 in 9.0 mi WNW 8.1 mph - N/A   Scattered Clouds
9:00 AM 26.6 °F 17.5 °F 21.2 °F 80% 29.33 in 9.0 mi West 9.2 mph - N/A   Partly Cloudy
10:00 AM 28.4 °F 20.4 °F 23.0 °F 80% 29.37 in 9.0 mi West 8.1 mph - N/A   Clear
11:00 AM 32.0 °F 25.6 °F 21.2 °F 64% 29.41 in 9.0 mi North 6.9 mph - N/A   Overcast
12:00 PM 30.2 °F 20.2 °F 23.0 °F 75% 29.44 in 9.0 mi North 12.7 mph - N/A   Overcast
12:02 PM 30.2 °F 20.8 °F 21.2 °F 69% 29.44 in 5.0 mi North 11.5 mph 17.3 mph N/A Snow Light Snow
12:03 PM 28.4 °F 18.0 °F 19.4 °F 69% 29.44 in 2.5 mi North 12.7 mph - N/A Snow Light Snow
12:13 PM 30.2 °F 21.3 °F 21.2 °F 69% 29.44 in 9.0 mi North 10.4 mph - N/A Snow Light Snow
12:19 PM 30.2 °F 20.2 °F 21.2 °F 69% 29.44 in 9.0 mi North 12.7 mph - N/A   Overcast
12:48 PM 28.4 °F 16.6 °F 17.6 °F 64% 29.46 in 5.0 mi NNE 16.1 mph - N/A Snow Light Snow
12:51 PM 28.4 °F 16.2 °F 19.4 °F 69% 29.47 in 1.2 mi NNE 17.3 mph - N/A Snow Light Snow
12:52 PM 28.4 °F 16.6 °F 19.4 °F 69% 29.47 in 0.6 mi North 16.1 mph - N/A Snow Light Snow
1:00 PM 28.4 °F 17.0 °F 17.6 °F 64% 29.47 in 0.6 mi NNE 15.0 mph 20.7 mph N/A Snow Light Snow
1:02 PM 28.4 °F 18.0 °F 17.6 °F 64% 29.48 in 2.0 mi NNE 12.7 mph 20.7 mph N/A Snow Light Snow
1:03 PM 28.4 °F 17.5 °F 17.6 °F 64% 29.48 in 3.0 mi NNE 13.8 mph 21.9 mph N/A Snow Light Snow
1:04 PM 28.4 °F 17.0 °F 17.6 °F 64% 29.47 in 6.0 mi NNE 15.0 mph 21.9 mph N/A Snow Light Snow
1:06 PM 28.4 °F 17.0 °F 17.6 °F 64% 29.48 in 2.2 mi NNE 15.0 mph 21.9 mph N/A Snow Light Snow
1:16 PM 28.4 °F 19.1 °F 17.6 °F 64% 29.49 in 9.0 mi NNE 10.4 mph 18.4 mph N/A Snow Light Snow
1:24 PM 26.6 °F 15.7 °F 17.6 °F 69% 29.49 in 9.0 mi North 12.7 mph - N/A   Clear
1:58 PM 24.8 °F 14.0 °F 15.8 °F 69% 29.52 in 5.0 mi North 11.5 mph - N/A   Haze
2:00 PM 24.8 °F 14.0 °F 15.8 °F 69% 29.52 in 5.0 mi North 11.5 mph - N/A Snow Light Snow
2:08 PM 24.8 °F 13.4 °F 15.8 °F 69% 29.52 in 9.0 mi North 12.7 mph - N/A Snow Light Snow
2:09 PM 24.8 °F 14.0 °F 15.8 °F 69% 29.53 in 9.0 mi North 11.5 mph 18.4 mph N/A   Clear
2:19 PM 24.8 °F 14.0 °F 15.8 °F 69% 29.54 in 3.0 mi NNE 11.5 mph 18.4 mph N/A   Haze
2:22 PM 24.8 °F 13.4 °F 14.0 °F 64% 29.55 in 3.0 mi NNE 12.7 mph - N/A Snow Light Snow
2:29 PM 24.8 °F 13.4 °F 14.0 °F 64% 29.55 in 9.0 mi NNE 12.7 mph - N/A Snow Light Snow
2:31 PM 24.8 °F 14.0 °F 15.8 °F 69% 29.55 in 9.0 mi NNE 11.5 mph - N/A   Clear
2:32 PM 24.8 °F 14.0 °F 15.8 °F 69% 29.55 in 2.2 mi NNE 11.5 mph - N/A   Haze
2:34 PM 24.8 °F 14.0 °F 14.0 °F 64% 29.55 in 2.0 mi NNE 11.5 mph - N/A Snow Light Snow
2:36 PM 24.8 °F 13.4 °F 14.0 °F 64% 29.56 in 1.5 mi NNE 12.7 mph - N/A Snow Light Snow
2:41 PM 24.8 °F 13.4 °F 14.0 °F 64% 29.56 in 2.0 mi NNE 12.7 mph - N/A Snow Light Snow
2:42 PM 24.8 °F 14.0 °F 14.0 °F 64% 29.56 in 3.0 mi NNE 11.5 mph 17.3 mph N/A Snow Light Snow
2:44 PM 24.8 °F 13.4 °F 14.0 °F 64% 29.57 in 9.0 mi NNE 12.7 mph - N/A Snow Light Snow
2:47 PM 24.8 °F 13.4 °F 14.0 °F 64% 29.57 in 9.0 mi NNE 12.7 mph - N/A   Clear
3:00 PM 23.0 °F 10.6 °F 14.0 °F 68% 29.57 in 9.0 mi NNE 13.8 mph - N/A   Clear
3:25 PM 23.0 °F 10.1 °F 14.0 °F 68% 29.59 in 8.0 mi NE 15.0 mph - N/A Snow Light Snow
3:46 PM 21.2 °F 8.9 °F 12.2 °F 68% 29.61 in 9.0 mi NNE 12.7 mph 20.7 mph N/A   Clear
4:00 PM 21.2 °F 7.8 °F 10.4 °F 63% 29.61 in 9.0 mi NNE 15.0 mph 23.0 mph N/A   Clear
5:00 PM 17.6 °F 4.3 °F 10.4 °F 73% 29.66 in 9.0 mi NNE 12.7 mph 18.4 mph N/A   Clear
6:00 PM 17.6 °F 3.2 °F 10.4 °F 73% 29.70 in 9.0 mi NNE 15.0 mph 20.7 mph N/A   Overcast
7:00 PM 15.8 °F -0.6 °F 6.8 °F 68% 29.71 in 9.0 mi NNE 18.4 mph 28.8 mph N/A   Overcast
8:00 PM 14.0 °F -3.4 °F 5.0 °F 67% 29.72 in 9.0 mi NNE 19.6 mph 27.6 mph N/A   Overcast
9:00 PM 12.2 °F -5.8 °F 5.0 °F 73% 29.75 in 9.0 mi NNE 19.6 mph 26.5 mph N/A   Overcast
9:49 PM 12.2 °F -5.3 °F 3.2 °F 67% 29.77 in 9.0 mi NE 18.4 mph 26.5 mph N/A Snow Light Snow
10:00 PM 10.4 °F -8.2 °F 3.2 °F 73% 29.78 in 9.0 mi NE 19.6 mph 28.8 mph N/A Snow Light Snow
11:00 PM 10.4 °F -5.4 °F 5.0 °F 79% 29.79 in 5.0 mi NE 13.8 mph 19.6 mph N/A Snow Light Snow
11:06 PM 10.4 °F -5.4 °F 5.0 °F 79% 29.79 in 5.0 mi NE 13.8 mph - N/A Snow Light Snow